Regional Weather Roundup
Issued by NWS

Home | Current Version | Previous Version | Graphics & Text | Print | Product List | Glossary On
Versions: 1 2 3 4 5 6 7 8 9 10 11 12 13 14 15 16 17 18 19 20 21 22 23 24 25 26 27 28 29 30 31 32 33 34 35 36 37 38 39 40 41 42 43 44 45 46 47 48 49 50
000
ASUS45 KBOU 070307
RWRCO

WEATHER ROUNDUP FOR COLORADO
NATIONAL WEATHER SERVICE DENVER/BOULDER CO
900 PM MDT WED MAY 06 2015

NOTE: "FAIR" INDICATES FEW OR NO CLOUDS BELOW 12000 FEET WITH NO
SIGNIFICANT WEATHER AND/OR OBSTRUCTIONS TO VISIBILITY.

COZ001>005-013-030-031-070400-
...NORTHWEST COLORADO...

CITY           SKY/WX    TMP DP  RH WIND       PRES   REMARKS
CRAIG          LGT RAIN  47  42  83 SW6       29.84R
HAYDEN         CLOUDY    45  37  76 NW3       29.85R
MEEKER         RAIN      45  40  82 SW14G29   29.89R
MOUNT WERNER   NOT AVBL
STEAMBOAT SPGS CLOUDY    44  42  92 NE5       29.86R
WALDEN         CLOUDY    41  36  81 S3        29.88R
$$

COZ006>008-011-070400-
...WEST CENTRAL VALLEYS...

CITY           SKY/WX    TMP DP  RH WIND       PRES   REMARKS
GRAND JUNCTION MOCLDY    49  48  97 SE10      29.80R
MONTROSE       PTCLDY    52  44  74 CALM      29.85R
EAGLE          CLOUDY    45  43  93 E5        29.90R
RIFLE          HVY RAIN  48  45  89 SW8       29.90R FOG
DELTA          MOCLDY    58  46  64 CALM      29.81S
NUCLA          MOCLDY    54  37  54 N3        29.86R
$$

COZ017>023-064>068-070400-
...SOUTHWEST COLORADO...

CITY           SKY/WX    TMP DP  RH WIND       PRES   REMARKS
DURANGO        CLOUDY    46  40  79 E5        29.92F
CORTEZ         PTCLDY    54  38  54 VRB3      29.86R
PAGOSA SPRINGS CLOUDY    45  39  78 NW9       29.98R
TELLURIDE      MOCLDY    38  36  92 E7        30.02R
WOLF CREEK PAS NOT AVBL
$$

COZ009-010-012-014-032>034-037-058>063-070400-
...CENTRAL COLORADO...

CITY           SKY/WX    TMP DP  RH WIND       PRES   REMARKS
ASPEN          CLOUDY    45  40  82 NW3       29.90R
BUENA VISTA    NOT AVBL
COPPER MTN     CLOUDY    34  27  75 SW10G22   30.05R WCI  26
BERTHOUD PASS  MOCLDY    27  19  74 W28       30.02F WCI  11
COTTONWOOD PAS CLOUDY    43  30  61 W3G18     29.96S
GUNNISON       MOCLDY    45  36  70 CALM      29.93S
KREMMLING      CLOUDY    46  36  66 SW10      29.89R
LEADVILLE      CLOUDY    38  29  70 N7        29.95R
MONARCH PASS   CLOUDY    30  30 100 MISG      30.15R
SALIDA         CLOUDY    52  35  52 SW8       29.95R
SUNLIGHT       MOCLDY    34  34 100 CALM      30.03R
WILKERSON PASS CLOUDY    34  30  86 W7        30.03R WCI  28
$$

COZ069>075-070400-
...SAN LUIS VALLEY/SANGRE DE CRISTO MOUNTAINS...

CITY           SKY/WX    TMP DP  RH WIND       PRES   REMARKS
ALAMOSA        CLOUDY    48  35  60 S10       29.92R
LA VETA PASS   CLOUDY   N/A N/A N/A MISG      30.01R
SAGUACHE       PTCLDY    43  41  93 NW6       29.91R
$$

COZ035-036-038>040-070400-
...NORTHERN COLORADO FRONT RANGE...

CITY           SKY/WX    TMP DP  RH WIND       PRES   REMARKS
DENVER INTL AP CLOUDY    50  48  93 N12       29.77S
DMNS CITY PARK   N/A     52  48  85 NE6       29.79R
AURORA         MOCLDY    51  51  99 N8        29.80R
FRONT RANGE AP LGT RAIN  54  52  94 N17G23    29.79R
ERIE MUNI ARPT LGT RAIN  53  51  92 N8        29.79R
BOULDER MUN AP CLOUDY    52  50  93 N7        29.79R
CENTENNIAL     CLOUDY    53  49  86 CALM      29.79R
BROOMFIELD     MOCLDY    52  50  93 N12       29.80R
FORT COLLINS   CLOUDY    52  48  87 N5        29.80R
LONGMONT       CLOUDY    55  49  82 N3        29.81R
$$

COZ041-046-047-076>085-087-088-070400-
...PIKES PEAK/PALMER DIVIDE AND SOUTHERN FOOTHILLS...

CITY           SKY/WX    TMP DP  RH WIND       PRES   REMARKS
COLO. SPRINGS  CLOUDY    49  46  90 N5        29.81R
A. F. ACADEMY  CLOUDY    48  47  99 CALM      29.81R
ELLICOTT       CLOUDY   N/A N/A N/A N5        29.79R
FALCON         CLOUDY    47  46  95 W9        29.84R
FORT CARSON    CLOUDY    48  47  96 NW5       29.78R
LIMON          CLOUDY    51  49  92 N5        29.76R
MONUMENT HILL  NOT AVBL
TRINIDAD       PTCLDY    57  38  48 SW10      29.80R
$$

COZ042>045-048>051-090-091-070400-
...NORTHEAST COLORADO...

CITY           SKY/WX    TMP DP  RH WIND       PRES   REMARKS
GREELEY ARPT   CLOUDY    52  52 100 N7        29.78R
AKRON          CLOUDY    56  51  84 NW10      29.75R
BURLINGTON     CLOUDY    58  47  66 SW13      29.72R
WRAY           PTCLDY    57  54  88 W6        29.69R
STERLING       CLOUDY    57  50  77 NW15      29.72R
HOLYOKE        NOT AVBL
FORT MORGAN    LGT RAIN  55  51  86 W15       29.77R
$$

COZ086-089-092>099-070400-
...SOUTHEAST COLORADO...

CITY           SKY/WX    TMP DP  RH WIND       PRES   REMARKS
PUEBLO         CLOUDY    55  50  83 W8        29.74R
LA JUNTA       CLOUDY    57  48  72 S6        29.71R
LAMAR          CLOUDY    56  52  86 N6        29.67F
SPRINGFIELD      N/A     55  48  77 N12       29.73R
$$



USA.gov is the U.S. government's official web portal to all federal, state and local government web resources and services.